This demonstration page uses our WeatherBlox Daily Observations layout. Learn more.

Left ArrowRight Arrow

40.92945, -100.16068

Hourly Observations for September 7, 2016

Temp ( °F °C ) Dew Point ( °F °C ) Humidity (%) Winds ( mph kmh ) Pressure ( in mb ) Visibility ( mi km ) Precip ( " mm )
12:15 am 00:15 Cloudy with Nearby Thunderstorms 66 18.7 62 16.5 87 87 NNW 9 15 29.97 1015 10 16 N/A
12:35 am 00:35 Cloudy with Light Rain 65 18.2 61 16.3 89 89 Calm 29.94 1014 10 16 N/A
12:55 am 00:55 Cloudy with Rain 64 18 61 16.3 90 90 E 9 15 29.97 1015 10 16 0.01 0.25
1:15 am 01:15 Cloudy with Light Rain 64 18 61 16.3 90 90 E 14 22 29.94 1014 10 16 0.03 0.76
1:35 am 01:35 Cloudy with Light Rain 64 18 62 16.5 91 91 ENE 8 13 29.94 1014 10 16 0.04 1.02
1:55 am 01:55 Cloudy 64 18 62 16.6 92 92 NNE 5 7 29.94 1014 10 16 0.04 1.02
2:15 am 02:15 Cloudy 64 17.8 62 16.5 92 92 N 8 13 29.94 1014 10 16 N/A
2:35 am 02:35 Partly Cloudy 64 17.5 61 16.1 92 92 NE 8 13 29.94 1014 10 16 N/A
2:55 am 02:55 Clear 64 17.5 61 16.1 92 92 NE 6 9 29.91 1013 10 16 N/A
3:15 am 03:15 Clear 64 17.5 61 16.1 92 92 ESE 5 7 29.91 1013 10 16 N/A
3:35 am 03:35 Clear 63 17.3 61 16 92 92 SE 3 6 29.91 1013 10 16 N/A
3:55 am 03:55 Clear 63 17.2 61 16 93 93 Calm 29.91 1013 10 16 0.00 0.00
4:15 am 04:15 Partly Cloudy 62 16.8 60 15.7 93 93 NW 3 6 29.91 1013 10 16 N/A
4:35 am 04:35 Partly Cloudy 62 16.6 60 15.7 94 94 NW 6 9 29.91 1013 10 16 N/A
4:55 am 04:55 Mostly Cloudy 62 16.7 60 15.8 94 94 N 3 6 29.91 1013 10 16 N/A
5:15 am 05:15 Partly Cloudy 62 16.8 61 16 95 95 NNW 5 7 29.91 1013 10 16 N/A
5:35 am 05:35 Clear 62 16.8 60 15.7 93 93 Calm 29.91 1013 10 16 N/A
5:55 am 05:55 Clear 62 16.5 60 15.5 94 94 Calm 29.91 1013 10 16 N/A
6:15 am 06:15 Clear 62 16.5 60 15.6 94 94 Calm 29.91 1013 10 16 N/A
6:35 am 06:35 Clear 62 16.5 60 15.6 94 94 Calm 29.91 1013 10 16 N/A
6:55 am 06:55 Clear 62 16.5 60 15.7 95 95 Calm 29.91 1013 10 16 0.00 0.00
7:15 am 07:15 Sunny 62 16.5 60 15.6 94 94 Calm 29.91 1013 7 11 N/A
7:35 am 07:35 Sunny 62 16.6 60 15.8 95 95 SSE 3 6 29.91 1013 7 11 N/A
7:55 am 07:55 Sunny 62 16.9 61 16.1 95 95 SE 6 9 29.91 1013 7 11 N/A
8:15 am 08:15 Sunny 63 17.2 61 16.3 94 94 Calm 29.91 1013 7 11 N/A
8:35 am 08:35 Sunny 64 17.6 62 16.6 94 94 E 5 7 29.91 1013 10 16 N/A
8:55 am 08:55 Sunny 64 18 62 16.5 91 91 ESE 6 9 29.91 1013 10 16 N/A
9:15 am 09:15 Sunny 65 18.4 62 16.7 90 90 E 5 7 29.91 1013 10 16 N/A
9:35 am 09:35 Sunny 66 18.7 62 16.7 88 88 ESE 5 7 29.91 1013 10 16 N/A
9:55 am 09:55 Sunny 67 19.4 63 17 86 86 E 5 7 29.91 1013 10 16 N/A
10:15 am 10:15 Sunny 68 20.2 63 17.4 84 84 SE 7 11 29.88 1012 10 16 N/A
10:35 am 10:35 Sunny 70 20.9 64 17.6 82 82 SE 10 17 29.88 1012 10 16 N/A
10:55 am 10:55 Sunny 72 22 64 17.9 78 78 SE 10 17 29.85 1011 10 16 N/A
11:15 am 11:15 Sunny 73 23 65 18.4 75 75 SE 10 17 29.83 1010 10 16 N/A
11:35 am 11:35 Sunny 74 23.1 65 18.4 75 75 SE 8 13 29.83 1010 10 16 N/A
11:55 am 11:55 Sunny 74 23.2 65 18.4 75 75 SSE 8 13 29.83 1010 10 16 N/A
12:15 pm 12:15 Mostly Cloudy 75 23.7 65 18.6 73 73 SSE 9 15 29.83 1010 10 16 N/A
12:35 pm 12:35 Cloudy 74 23.5 66 18.9 75 75 S 8 13 29.83 1010 10 16 N/A
12:55 pm 12:55 Cloudy 76 24.4 66 19.1 72 72 S 6 9 29.83 1010 10 16 N/A
1:15 pm 13:15 Cloudy 75 24 66 19.1 74 74 WSW 3 6 29.83 1010 10 16 N/A
1:35 pm 13:35 Cloudy 75 24.1 66 18.8 72 72 S 3 6 29.83 1010 10 16 N/A
1:55 pm 13:55 Cloudy 75 24.1 65 18.6 71 71 WSW 3 6 29.83 1010 10 16 N/A
2:15 pm 14:15 Cloudy 75 24.1 66 18.7 72 72 W 5 7 29.83 1010 10 16 N/A
2:35 pm 14:35 Cloudy 76 24.5 66 18.9 71 71 SW 5 7 29.80 1009 10 16 N/A
2:55 pm 14:55 Cloudy 76 24.5 66 18.8 71 71 WSW 3 6 29.80 1009 10 16 N/A
3:15 pm 15:15 Cloudy 76 24.6 66 18.8 70 70 Calm 29.80 1009 10 16 N/A
3:35 pm 15:35 Cloudy 76 24.7 66 18.8 70 70 WSW 3 6 29.80 1009 10 16 N/A
3:55 pm 15:55 Cloudy 76 24.5 65 18.6 70 70 Calm 29.80 1009 10 16 N/A
4:15 pm 16:15 Cloudy 76 24.7 65 18.6 69 69 Calm 29.80 1009 10 16 N/A
4:35 pm 16:35 Mostly Cloudy 78 25.5 66 18.7 66 66 S 5 7 29.80 1009 10 16 N/A
4:55 pm 16:55 Partly Cloudy 78 25.6 65 18.6 65 65 SSW 3 6 29.80 1009 10 16 N/A
5:35 pm 17:35 Cloudy 77 25.2 65 18.5 66 66 Calm 29.80 1009 10 16 N/A
5:55 pm 17:55 Mostly Cloudy 77 25.2 66 18.9 68 68 Calm 29.80 1009 10 16 N/A
6:15 pm 18:15 Mostly Cloudy 77 25.1 66 18.7 68 68 Calm 29.80 1009 10 16 N/A
6:35 pm 18:35 Mostly Cloudy 78 25.3 66 18.7 67 67 Calm 29.80 1009 10 16 N/A
6:55 pm 18:55 Partly Cloudy 78 25.4 66 18.7 67 67 Calm 29.80 1009 10 16 N/A
7:15 pm 19:15 Sunny 77 24.8 65 18.6 69 69 Calm 29.83 1010 10 16 N/A
7:35 pm 19:35 Sunny 76 24.5 66 18.7 70 70 Calm 29.80 1009 10 16 N/A
7:55 pm 19:55 Sunny 74 23.3 66 19.1 77 77 Calm 29.80 1009 10 16 N/A
8:15 pm 20:15 Clear 73 22.5 66 19 81 81 Calm 29.80 1009 10 16 N/A
8:35 pm 20:35 Clear 71 21.4 65 18.6 84 84 Calm 29.85 1011 10 16 N/A
8:55 pm 20:55 Clear 69 20.8 66 18.8 88 88 Calm 29.85 1011 10 16 N/A
9:15 pm 21:15 Clear 68 20.2 66 18.8 92 92 Calm 29.88 1012 10 16 N/A
9:35 pm 21:35 Clear 67 19.6 65 18.1 91 91 Calm 29.88 1012 10 16 N/A
9:55 pm 21:55 Clear 66 19 64 17.8 93 93 NE 3 6 29.91 1013 10 16 N/A
10:15 pm 22:15 Clear 66 19 64 17.8 93 93 ENE 5 7 29.88 1012 7 11 N/A
10:35 pm 22:35 Clear 65 18.6 63 17.3 92 92 NNE 5 7 29.88 1012 10 16 N/A
10:55 pm 22:55 Clear 65 18.6 64 17.5 93 93 Calm 29.91 1013 7 11 N/A
11:15 pm 23:15 Clear 65 18.2 63 17 93 93 Calm 29.91 1013 7 11 N/A
11:35 pm 23:35 Clear 64 18 63 17 94 94 W 3 6 29.91 1013 7 11 N/A
11:55 pm 23:55 Clear 64 18 63 17 94 94 WNW 5 7 29.91 1013 7 11 N/A

Powered by AerisWeather